Mercury, NV

8:44 AM PDT on September 22, 2017 (GMT -0700)
Mercury

Weather History for KDRA - November, 2013

Change the Weather History Date:

Sunday, November 10, 2013

  Actual Average Record
Temperature  
Mean Temperature 55 °F 53 °F  
Max Temperature 73 °F 66 °F 80 °F (1980)
Min Temperature 37 °F 40 °F 27 °F (2010)
Degree Days  
Heating Degree Days 10    
Cooling Degree Days 0    
Growing Degree Days 5 (Base 50)    
Moisture  
Dew Point 15 °F    
Average Humidity 21    
Maximum Humidity 34    
Minimum Humidity 5    
Precipitation  
Precipitation 0.00 in 0.01 in 0.58 in (1978)
Month to date precipitation 0.12  
Year to date precipitation 5.07  
Sea Level Pressure  
Sea Level Pressure 30.12 in    
Wind  
Wind Speed 2 mph (ENE)    
Max Wind Speed 8 mph    
Max Gust Speed -    
Visibility 10 miles    
Events      
T = Trace of Precipitation, MM = Missing Value Source: NWS Daily Summary

Daily Weather History Graph

Daily Weather History Graph

Search for Another Location

Airport or City:

Trip Planner

Search our weather history database for the weather conditions in past years. The results will help you decide how hot, cold, wet, or windy it might be!

Date:

Astronomy

Nov. 10, 2013 Rise Set
Actual Time 6:17 AM PST 4:38 PM PST
Civil Twilight 5:49 AM PST 5:05 PM PST
Nautical Twilight 5:18 AM PST 5:36 PM PST
Astronomical Twilight 4:48 AM PST 6:07 PM PST
Moon 12:36 PM PST (11/10) No Moon Set
Length of Visible Light 11h 16m
Length of Day
10h 21m
First Quarter, 56% of the Moon is Illuminated
Nov 10
First Quarter
Nov 17
Full
Nov 25
Last Quarter
Dec 2
New
Dec 9
First Quarter

Hourly Weather History & Observations

Time (PST) Temp. Windchill Dew Point Humidity Pressure Visibility Wind Dir Wind Speed Gust Speed Precip Events Conditions
12:52 AM 45.0 °F 43.5 °F 12.9 °F 27% 30.10 in 10.0 mi East 3.5 mph - N/A   Clear
1:52 AM 43.0 °F - 12.9 °F 30% 30.11 in 10.0 mi Calm Calm - N/A   Clear
2:52 AM 39.9 °F - 12.9 °F 33% 30.11 in 10.0 mi Calm Calm - N/A   Clear
3:52 AM 41.0 °F - 14.0 °F 33% 30.11 in 10.0 mi Calm Calm - N/A   Clear
4:52 AM 41.0 °F 38.0 °F 12.9 °F 32% 30.13 in 10.0 mi NE 4.6 mph - N/A   Clear
6:52 AM 44.1 °F - 17.1 °F 34% 30.16 in 10.0 mi Calm Calm - N/A   Clear
7:52 AM 52.0 °F - 16.0 °F 24% 30.17 in 10.0 mi Calm Calm - N/A   Clear
8:52 AM 60.1 °F - 16.0 °F 18% 30.17 in 10.0 mi Calm Calm - N/A   Clear
9:52 AM 64.0 °F - 16.0 °F 16% 30.16 in 10.0 mi Calm Calm - N/A   Clear
10:52 AM 66.9 °F - 18.0 °F 15% 30.14 in 10.0 mi Variable 3.5 mph - N/A   Clear
11:52 AM 70.0 °F - 19.0 °F 14% 30.12 in 10.0 mi Variable 5.8 mph - N/A   Clear
12:52 PM 72.0 °F - 17.1 °F 12% 30.09 in 10.0 mi Calm Calm - N/A   Clear
1:52 PM 72.0 °F - 15.1 °F 11% 30.08 in 10.0 mi Calm Calm - N/A   Clear
2:52 PM 72.0 °F - 14.0 °F 11% 30.08 in 10.0 mi Variable 4.6 mph - N/A   Clear
3:52 PM 71.1 °F - 14.0 °F 11% 30.08 in 10.0 mi Calm Calm - N/A   Clear
4:52 PM 66.0 °F - 17.1 °F 15% 30.10 in 10.0 mi SSW 5.8 mph - N/A   Clear
5:52 PM 57.9 °F - 15.1 °F 19% 30.13 in 10.0 mi East 5.8 mph - N/A   Clear
6:52 PM 54.0 °F - 15.1 °F 22% 30.14 in 10.0 mi East 4.6 mph - N/A   Clear
7:52 PM 52.0 °F - 17.1 °F 25% 30.13 in 10.0 mi East 8.1 mph - N/A   Clear
8:52 PM 50.0 °F - 17.1 °F 27% 30.14 in 10.0 mi North 3.5 mph - N/A   Clear
9:52 PM 46.0 °F - 15.1 °F 29% 30.14 in 10.0 mi Calm Calm - N/A   Clear
10:52 PM 44.1 °F 42.5 °F 14.0 °F 30% 30.13 in 10.0 mi NNW 3.5 mph - N/A   Clear
11:52 PM 46.0 °F - 16.0 °F 30% 30.12 in 10.0 mi Calm Calm - N/A   Clear